{"data":{"norad_id":53760,"epoch":"2026-09-20T23:08:28.818816Z","epoch_age_seconds":109685,"freshness":"FRESH","line1":"1 53760U 22109A   26263.96422244  .00005853  00000+0  24388-3 0  9995","line2":"2 53760  35.0061  96.6817 0005116 154.3059 205.7910 15.23051945225227","mean_motion":15.23051945,"eccentricity":0.0005116,"inclination_deg":35.0061,"raan_deg":96.6817,"arg_perigee_deg":154.3059,"mean_anomaly_deg":205.791,"bstar":0.00024388,"rev_number":22522,"period_min":94.547005092463,"perigee_km":493.12416565896,"apogee_km":500.15843881781,"semimajor_km":6874.7783022384,"source":"CELESTRAK","updated_at":"2026-09-21T09:00:09.188407Z"}}